[[{"header":{"parameterUnit":"m.s-1","parameterCategory":1,"la1":30.2991,"la2":30.254,"lo1":-89.0895,"lo2":-89.0444,"dy":0.0017,"dx":0.0017,"nx":28,"ny":28,"refTime":"2024-06-23T09:00:00:Z","depth":0,"parameterNumber":2,"parameterNumberName":"U-component_of_WINDS"},"data":[0,0,0,0,0,0,0,0,0,0,0,0,0,0,0,0,0,0,0,0,0,0,0,0,0,0,0,0,0,0,0,0,0,0,0,0,0,0,0,0,0,0,0,0,0,0,0,0,0,0,0,0,0,0,0,0,0,0,1.1279,1.1279,0,1.1323,1.1323,1.1324,1.1336,1.1336,1.1336,1.1335,1.1378,1.138,1.1381,0,0,0,0,0,0,0,0,0,0,0,0,0,1.1203,1.1204,1.1279,1.128,1.128,1.1323,1.1323,1.1324,1.1336,1.1336,1.1336,1.1335,1.1378,1.138,1.1381,0,0,0,0,0,0,0,0,0,0,0,0,0,1.124,1.1204,1.1279,1.1291,1.1293,1.1322,1.1323,1.1324,1.1336,1.1336,1.1336,1.1335,1.1377,1.1379,1.1381,1.1401,0,0,1.1388,1.1389,0,0,0,0,0,0,0,0,1.1238,1.1243,1.1289,1.1291,1.1292,1.1324,1.1312,1.135,1.1336,1.132,1.1335,1.1335,1.136,1.1364,1.1373,1.1403,1.1405,1.1388,1.1389,1.139,1.1391,0,0,0,0,0,0,0,1.1235,1.1241,1.1296,1.129,1.1292,1.1294,1.1299,1.1319,1.1341,1.1321,1.1322,1.1327,1.1361,1.1371,1.1374,1.1405,1.1388,1.139,1.1391,1.1392,1.1451,1.1451,0,0,0,0,0,0,1.1231,1.1239,1.1295,1.1298,1.1264,1.1295,1.1301,1.1314,1.1341,1.1345,1.1328,1.1328,1.1367,1.1371,1.1375,1.1398,1.139,1.1392,1.1393,1.1451,1.1451,1.1451,0,0,0,0,0,0,1.1229,1.1236,1.1293,1.1268,1.1276,1.1297,1.1312,1.1315,1.1325,1.1346,1.135,1.1333,1.1367,1.1372,1.1394,1.14,1.1393,1.1395,1.145,1.1451,1.1451,1.1446,0,0,0,0,0,0,1.1227,1.1235,1.1244,1.1268,1.1277,1.1312,1.1312,1.1316,1.1328,1.1329,1.1353,1.1356,1.1367,1.1391,1.1396,1.1403,1.1396,1.145,1.145,1.1451,1.1445,1.1446,1.1446,0,0,0,0,0,1.1224,1.1241,1.1244,1.1251,1.1289,1.1313,1.1317,1.133,1.1329,1.1337,1.135,1.1355,1.1398,1.1393,1.1399,1.1406,1.1449,1.145,1.1451,1.1445,1.1446,1.1446,0,0,0,0,0,0,1.1216,1.1244,1.1249,1.1274,1.1291,1.1315,1.1326,1.1331,1.1349,1.1348,1.1363,1.1368,1.1388,1.14,1.1393,1.1425,1.1424,1.1426,1.1417,1.1418,1.1419,1.1416,1.1398,0,0,0,0,0,1.1218,1.1236,1.1259,1.1279,1.1287,1.1304,1.1316,1.1324,1.1342,1.1349,1.1364,1.138,1.1397,1.1408,1.1426,1.1447,1.1451,1.1455,1.1455,1.1455,1.1457,1.1467,1.1468,1.1454,1.1454,1.1454,0,0,1.122,1.1238,1.1248,1.1277,1.1292,1.1308,1.1311,1.1329,1.1341,1.1352,1.1373,1.1384,1.1403,1.1424,1.1434,1.1434,1.1461,1.1456,1.1456,1.1458,1.1468,1.1469,1.147,1.1455,1.1454,1.1454,0,0,1.1234,1.125,1.1267,1.128,1.1302,1.1313,1.1317,1.1339,1.1347,1.1369,1.1376,1.139,1.142,1.1432,1.1443,1.1458,1.1463,1.1463,1.1465,1.1475,1.1476,1.1477,1.1481,1.1483,1.1464,1.1464,1.1464,0,1.1234,1.1261,1.1275,1.1292,1.1304,1.1314,1.133,1.1343,1.1368,1.1375,1.1375,1.141,1.1424,1.1447,1.145,1.1459,1.1463,1.146,1.1475,1.1476,1.1477,1.1481,1.1483,1.1464,1.1464,1.1464,1.1464,0,1.126,1.1278,1.1289,1.1313,1.1326,1.1343,1.1358,1.1369,1.1375,1.1386,1.1406,1.1423,1.1442,1.1448,1.1455,1.1471,1.147,1.1472,1.1471,1.1478,1.1482,1.1484,1.1464,1.1464,1.1464,1.1464,0,0,1.1271,1.1301,1.1305,1.1315,1.1337,1.1351,1.1367,1.1387,1.1395,1.1411,1.1424,1.1448,1.1449,1.146,1.1468,1.1477,1.1486,1.1477,1.1478,1.1478,1.1503,1.1501,1.1503,1.1489,1.1489,1.1489,1.1501,0,1.1287,1.1317,1.1329,1.1353,1.1369,1.1377,1.139,1.1405,1.1415,1.1428,1.1439,1.1455,1.1456,1.1463,1.1471,1.1483,1.1491,1.1482,1.15,1.15,1.1495,1.1505,1.1504,1.1514,1.1503,1.1503,1.1503,0,1.131,1.1326,1.1351,1.137,1.1377,1.139,1.1407,1.142,1.1436,1.1442,1.1454,1.1461,1.1476,1.1474,1.1494,1.1488,1.1496,1.1502,1.1503,1.1505,1.1502,1.1507,1.1518,1.1519,1.1506,1.1506,1.1505,0,1.1313,1.1342,1.136,1.1369,1.1391,1.1399,1.1409,1.1424,1.1434,1.1449,1.1455,1.1471,1.148,1.1492,1.1502,1.15,1.1521,1.152,1.1526,1.1525,1.153,1.153,1.1542,1.1536,1.1536,1.1536,1.1535,0,1.1329,1.1344,1.1362,1.1373,1.139,1.1402,1.1417,1.1427,1.144,1.1453,1.146,1.1472,1.1485,1.1497,1.1505,1.152,1.1524,1.1529,1.1531,1.1528,1.1527,1.1533,1.1533,1.1536,1.1536,1.1536,1.1536,0,1.1337,1.1349,1.137,1.1389,1.1394,1.1405,1.1421,1.1431,1.1441,1.1456,1.146,1.1475,1.1489,1.1501,1.152,1.1525,1.1541,1.1543,1.1536,1.1537,1.1541,1.1541,1.1558,1.156,1.1552,1.1552,1.1553,0,1.1346,1.1358,1.1378,1.1386,1.1396,1.141,1.142,1.1432,1.1441,1.1459,1.1467,1.1482,1.1495,1.1518,1.1529,1.1544,1.1546,1.1551,1.1548,1.1544,1.1545,1.1544,1.1545,1.1551,1.1551,1.1551,1.1551,0,1.136,1.1365,1.138,1.1396,1.1407,1.142,1.1433,1.144,1.1453,1.1464,1.1479,1.1489,1.1508,1.1522,1.1537,1.1546,1.155,1.1552,1.1554,1.1551,1.1546,1.1548,1.1536,1.1552,1.1552,1.1552,1.1552,1.1552,1.1368,1.1378,1.1393,1.1408,1.1419,1.1431,1.1441,1.1451,1.1464,1.1481,1.1486,1.1502,1.1515,1.1535,1.1544,1.1555,1.1555,1.1558,1.1559,1.156,1.1559,1.1544,1.1558,1.1558,1.1558,1.1558,1.1558,0,1.1382,1.1392,1.1405,1.1423,1.1434,1.1438,1.1452,1.1461,1.1474,1.1486,1.1499,1.1515,1.1528,1.154,1.1554,1.1561,1.1563,1.1564,1.1563,1.1565,1.1558,1.1555,1.1562,1.1562,1.1562,1.1562,1.1562,1.1562,1.139,1.1407,1.1413,1.1435,1.1444,1.1459,1.1467,1.1477,1.1486,1.1504,1.1516,1.1524,1.1535,1.155,1.1562,1.1565,1.1569,1.1569,1.1573,1.1566,1.1566,1.1565,1.1562,1.157,1.157,1.1578,1.1578,1.1579]},{"header":{"parameterUnit":"m.s-1","parameterCategory":1,"la1":30.2991,"la2":30.254,"lo1":-89.0895,"lo2":-89.0444,"dy":0.0017,"dx":0.0017,"nx":28,"ny":28,"refTime":"2024-06-23T09:00:00:Z","depth":0,"parameterNumber":3,"parameterNumberName":"V-component_of_WINDS"},"data":[0,0,0,0,0,0,0,0,0,0,0,0,0,0,0,0,0,0,0,0,0,0,0,0,0,0,0,0,0,0,0,0,0,0,0,0,0,0,0,0,0,0,0,0,0,0,0,0,0,0,0,0,0,0,0,0,0,0,5.5585,5.5586,0,5.5608,5.5608,5.5609,5.5523,5.552,5.5518,5.5515,5.5536,5.5538,5.5541,0,0,0,0,0,0,0,0,0,0,0,0,0,5.5463,5.5466,5.5585,5.5586,5.5586,5.5608,5.5608,5.5609,5.5523,5.552,5.5517,5.5514,5.5535,5.5538,5.5542,0,0,0,0,0,0,0,0,0,0,0,0,0,5.5504,5.5467,5.5585,5.5546,5.5543,5.5608,5.5608,5.5609,5.5524,5.552,5.5516,5.5513,5.5533,5.5538,5.5542,5.5645,0,0,5.5555,5.5557,0,0,0,0,0,0,0,0,5.5502,5.5509,5.5551,5.5549,5.5545,5.5559,5.5573,5.5621,5.5525,5.5531,5.5515,5.5511,5.5546,5.5549,5.5562,5.5646,5.5647,5.5556,5.5558,5.556,5.5561,0,0,0,0,0,0,0,5.5499,5.5507,5.5594,5.5552,5.5548,5.5526,5.5527,5.5581,5.556,5.553,5.5524,5.5528,5.5544,5.5558,5.5562,5.5647,5.5556,5.5559,5.5562,5.5564,5.5816,5.5819,0,0,0,0,0,0,5.5502,5.5505,5.5593,5.5595,5.5514,5.5531,5.5533,5.5558,5.5559,5.5555,5.5531,5.5524,5.5552,5.5557,5.5562,5.5681,5.556,5.5564,5.5567,5.5812,5.5817,5.5821,0,0,0,0,0,0,5.55,5.5511,5.5592,5.5548,5.5557,5.5537,5.5566,5.5561,5.5575,5.556,5.5555,5.555,5.5549,5.5556,5.5625,5.5681,5.5566,5.557,5.5807,5.5813,5.5819,5.5923,0,0,0,0,0,0,5.5496,5.551,5.5551,5.555,5.556,5.5657,5.557,5.5564,5.5583,5.5574,5.5576,5.5573,5.5547,5.5619,5.5629,5.5685,5.5574,5.5802,5.581,5.5817,5.5914,5.5931,5.5946,0,0,0,0,0,5.5492,5.5579,5.5553,5.5564,5.561,5.566,5.5666,5.5635,5.5588,5.5627,5.5617,5.5573,5.5674,5.5627,5.5638,5.5696,5.5798,5.5807,5.5816,5.5907,5.5928,5.5946,0,0,0,0,0,0,5.5585,5.5578,5.5549,5.5638,5.5651,5.5646,5.5694,5.5659,5.5684,5.5674,5.5634,5.5635,5.5711,5.571,5.5658,5.5795,5.5727,5.5739,5.5792,5.5813,5.5828,5.5826,5.5577,0,0,0,0,0,5.5616,5.5659,5.565,5.5729,5.5737,5.5715,5.5736,5.5711,5.5722,5.5726,5.5721,5.5732,5.5766,5.5789,5.582,5.5914,5.5912,5.5959,5.5975,5.5988,5.5999,5.6046,5.6066,5.5851,5.5851,5.5851,0,0,5.568,5.5681,5.5711,5.5748,5.5754,5.5798,5.572,5.5769,5.5801,5.5733,5.5798,5.5795,5.5805,5.5886,5.5922,5.5888,5.6058,5.6,5.6011,5.6014,5.6058,5.6078,5.6096,5.5857,5.5856,5.5855,0,0,5.5819,5.5825,5.5891,5.5899,5.5911,5.5895,5.5911,5.5912,5.5907,5.5972,5.5922,5.5958,5.6018,5.6026,5.6038,5.618,5.6139,5.6191,5.6275,5.6322,5.6339,5.6353,5.6402,5.642,5.6201,5.6201,5.6201,0,5.5897,5.5962,5.5929,5.5982,5.5999,5.5941,5.6006,5.6015,5.6036,5.6048,5.601,5.6083,5.6085,5.6167,5.6201,5.6214,5.6229,5.619,5.6339,5.6354,5.6367,5.6413,5.6432,5.6207,5.6207,5.6206,5.6205,0,5.6056,5.6102,5.6153,5.6175,5.6198,5.6257,5.6231,5.6258,5.6231,5.622,5.6285,5.6286,5.6315,5.6333,5.6307,5.6411,5.6389,5.6346,5.6277,5.6394,5.6437,5.6454,5.6216,5.6214,5.6212,5.6211,0,0,5.6254,5.6256,5.6276,5.6284,5.6292,5.6326,5.6381,5.6411,5.6433,5.6449,5.6494,5.6546,5.6505,5.6519,5.6494,5.6535,5.6645,5.6486,5.6486,5.6514,5.6757,5.6789,5.681,5.6619,5.6622,5.6624,5.6756,0,5.6389,5.6485,5.6456,5.6552,5.6593,5.6538,5.6585,5.6595,5.6585,5.6617,5.6606,5.6643,5.6588,5.6595,5.6634,5.6624,5.6693,5.6614,5.6658,5.666,5.6656,5.6833,5.6867,5.6991,5.6773,5.6775,5.6777,0,5.6559,5.6582,5.6683,5.6682,5.6698,5.6742,5.6765,5.6798,5.6806,5.6796,5.6812,5.6777,5.683,5.6763,5.6834,5.6781,5.6797,5.6794,5.6798,5.68,5.6725,5.6838,5.703,5.7048,5.6804,5.6801,5.68,0,5.6691,5.6748,5.6814,5.6823,5.6825,5.6857,5.6859,5.6864,5.6883,5.6903,5.6915,5.6941,5.6955,5.6976,5.6949,5.6902,5.7024,5.6954,5.7015,5.7016,5.7042,5.7041,5.7238,5.7056,5.7055,5.7055,5.7055,0,5.6844,5.6907,5.6873,5.6914,5.6983,5.6949,5.7017,5.7012,5.7017,5.7055,5.7009,5.7045,5.7009,5.7041,5.7021,5.7082,5.7089,5.7081,5.7075,5.7085,5.7085,5.7094,5.7084,5.706,5.7059,5.7058,5.7057,0,5.7003,5.6983,5.7052,5.7048,5.7049,5.7099,5.7095,5.7132,5.7119,5.7167,5.7176,5.7156,5.7192,5.7168,5.7204,5.7189,5.7269,5.7252,5.7267,5.7261,5.7324,5.7318,5.7532,5.7558,5.736,5.7362,5.7364,0,5.7102,5.7149,5.715,5.7172,5.7178,5.7215,5.7234,5.7202,5.7223,5.7236,5.7271,5.7303,5.7327,5.7387,5.7374,5.7401,5.7383,5.7456,5.7386,5.7394,5.7382,5.7379,5.7383,5.747,5.7472,5.7474,5.7475,0,5.7278,5.7265,5.7295,5.7322,5.7346,5.7365,5.738,5.74,5.7368,5.7394,5.7431,5.7449,5.7486,5.7518,5.754,5.754,5.7502,5.7498,5.7513,5.7523,5.7529,5.7525,5.7304,5.7493,5.7491,5.749,5.7489,5.7488,5.7408,5.7447,5.7454,5.7488,5.7496,5.7511,5.7545,5.7536,5.7566,5.7594,5.7573,5.7616,5.7622,5.7648,5.7653,5.7686,5.7655,5.7678,5.7683,5.7689,5.7697,5.7526,5.769,5.7689,5.7689,5.7688,5.7688,0,5.7581,5.7582,5.7614,5.7637,5.7663,5.7626,5.764,5.7665,5.7703,5.7713,5.7737,5.7778,5.7809,5.7799,5.7826,5.7854,5.7837,5.7862,5.7858,5.7859,5.7724,5.7707,5.7875,5.7875,5.7875,5.7875,5.7875,5.7875,5.7674,5.7737,5.7725,5.7791,5.7791,5.7833,5.7845,5.7858,5.7865,5.7913,5.7938,5.7932,5.7933,5.7959,5.7985,5.7981,5.7993,5.8024,5.8014,5.7887,5.7869,5.7851,5.7835,5.8027,5.8027,5.8146,5.8147,5.8148]}]]